User: anonymous   Login
Location: Unnamed
(47.6264°N, 122.3366°W)
Time: 00:45:13
(UTC-08:00)
Language:

BEESAT - Orbit

View from above orbital plane
View from above orbital plane
View from above satellite
View from above satellite

Ground track
Ground track

The orbit data is extracted from the following two-line orbital elements,

1 35933U 09051C   23335.62112953  .00002431  00000-0  53829-3 0  9993
2 35933  98.4872 210.9205 0004745 214.9406 145.1481 14.58115985753688
Epoch (UTC): 01 December 2023 14:54:25
Eccentricity: 0.0004745
inclination: 98.4872°
perigee height: 696 km
apogee height: 702 km
right ascension of ascending node: 210.9205°
argument of perigee: 214.9406°
revolutions per day: 14.58115985
mean anomaly at epoch: 145.1481°
orbit number at epoch: 75368

The dashed part of the orbit path shows where the satellite is in the earth's shadow,  

DLR